Date String (YYYY-MM-DD hh:mm:ss) UTC,Instrument flags,absolute air pressure of the measurement (hPa),sample flow rate (lpm),inlet stack bypass flow (lpm),air temperature of the measurement (°C),ambient temperature measured by the external sensor (°C),aerosol sample conditioner tube jacket temperature (°C),OPC LED temperature (°C),internal box temperature (°C),relative humidity of the measurement (%),span deviation,mass concentration of particles derived from Lorenz-Mie calculation of OPC scattering (μg/m³),mass concentration of particles derived from Lorenz-Mie calculation of OPC scattering (μg/m³),mass concentration of particles derived from Lorenz-Mie calculation of OPC scattering (μg/m³)
DateTimeUTC,F1_M11,P_M11,Q1_M11,Q2_M11,T1_M11,T2_M11,T3_M11,T4_M11,T5_M11,U1_M11,ZSPAN_M11,X0_M11,X2_M11,X1_M11
2024-02-13 05:00:00,SystemResetWarning,0824.9,5.01,000.00,019.6,018.9,000.0,028.0,021.3,11.6,0000.0,0001.83,0001.02,0000.67
2024-02-13 05:01:00,SystemResetWarning,0824.8,5.00,000.00,019.6,018.9,000.0,028.0,021.3,11.7,0000.0,0001.89,0001.03,0000.68
2024-02-13 05:02:00,SystemResetWarning,0824.7,5.00,000.00,019.6,018.9,000.0,028.0,021.2,11.5,0000.0,0001.89,0001.04,0000.68
2024-02-13 05:03:00,SystemResetWarning,0824.7,5.00,000.00,019.6,018.9,000.0,027.9,021.2,11.2,0000.0,0001.86,0001.04,0000.68
2024-02-13 05:04:00,SystemResetWarning,0824.7,5.01,000.00,019.6,018.8,000.0,027.9,021.2,11.2,0000.0,0001.78,0001.02,0000.68
2024-02-13 05:05:00,SystemResetWarning,0824.7,5.00,000.00,019.6,018.8,000.0,027.9,021.2,11.2,0000.0,0001.72,0000.99,0000.68
2024-02-13 05:06:00,SystemResetWarning,0824.7,5.00,000.00,019.5,018.8,000.0,027.9,021.2,11.4,0000.0,0001.76,0000.98,0000.67
2024-02-13 05:07:00,SystemResetWarning,0824.7,5.00,000.00,019.5,018.8,000.0,027.9,021.2,11.6,0000.0,0001.76,0000.99,0000.67
2024-02-13 05:08:00,SystemResetWarning,0824.7,4.99,000.00,019.5,018.8,000.0,027.9,021.2,11.8,0000.0,0001.67,0000.96,0000.67
2024-02-13 05:09:00,SystemResetWarning,0824.7,4.99,000.00,019.5,018.8,000.0,027.9,021.2,11.5,0000.0,0001.69,0000.97,0000.67
2024-02-13 05:10:00,SystemResetWarning,0824.7,5.00,000.00,019.5,018.8,000.0,027.9,021.1,11.7,0000.0,0001.73,0000.98,0000.66
2024-02-13 05:11:00,SystemResetWarning,0824.8,5.00,000.00,019.5,018.8,000.0,027.8,021.1,11.5,0000.0,0001.60,0000.98,0000.67
2024-02-13 05:12:00,SystemResetWarning,0824.8,5.00,000.00,019.5,018.8,000.0,027.8,021.1,11.6,0000.0,0001.65,0001.01,0000.67
2024-02-13 05:13:00,SystemResetWarning,0824.9,5.00,000.00,019.5,018.7,000.0,027.8,021.1,11.8,0000.0,0001.67,0001.02,0000.67
2024-02-13 05:14:00,SystemResetWarning,0824.8,5.01,000.00,019.5,018.7,000.0,027.8,021.1,12.1,0000.0,0002.87,0001.02,0000.66
2024-02-13 05:15:00,SystemResetWarning,0824.9,5.00,000.00,019.5,018.7,000.0,027.8,021.1,11.7,0000.0,0003.08,0001.04,0000.67
2024-02-13 05:16:00,SystemResetWarning,0824.9,5.00,000.00,019.4,018.7,000.0,027.8,021.1,11.5,0000.0,0003.18,0001.09,0000.67
2024-02-13 05:17:00,SystemResetWarning,0824.9,5.00,000.00,019.4,018.7,000.0,027.8,021.1,11.8,0000.0,0003.26,0001.11,0000.67
2024-02-13 05:18:00,SystemResetWarning,0824.9,4.99,000.00,019.4,018.7,000.0,027.8,021.0,11.9,0000.0,0003.19,0001.09,0000.67
2024-02-13 05:19:00,SystemResetWarning,0824.9,5.00,000.00,019.4,018.7,000.0,027.7,021.0,11.9,0000.0,0003.28,0001.12,0000.67
2024-02-13 05:20:00,SystemResetWarning,0824.9,5.00,000.00,019.4,018.7,000.0,027.7,021.0,11.8,0000.0,0003.38,0001.16,0000.67
2024-02-13 05:21:00,SystemResetWarning,0824.9,5.01,000.00,019.4,018.7,000.0,027.7,021.0,11.6,0000.0,0003.36,0001.15,0000.67
2024-02-13 05:22:00,SystemResetWarning,0824.9,5.01,000.00,019.4,018.6,000.0,027.7,021.0,11.4,0000.0,0003.33,0001.12,0000.67
2024-02-13 05:23:00,SystemResetWarning,0824.9,5.00,000.00,019.4,018.6,000.0,027.7,021.0,11.2,0000.0,0003.29,0001.09,0000.66
2024-02-13 05:24:00,SystemResetWarning,0824.9,5.00,000.00,019.3,018.6,000.0,027.7,021.0,11.3,0000.0,0003.22,0001.07,0000.64
2024-02-13 05:25:00,SystemResetWarning,0824.9,4.99,000.00,019.3,018.6,000.0,027.7,021.0,11.5,0000.0,0002.19,0001.05,0000.64
2024-02-13 05:26:00,SystemResetWarning,0824.9,5.00,000.00,019.3,018.6,000.0,027.7,021.0,11.1,0000.0,0001.79,0001.03,0000.64
2024-02-13 05:27:00,SystemResetWarning,0824.9,5.00,000.00,019.3,018.6,000.0,027.6,021.0,11.3,0000.0,0001.80,0001.02,0000.64
2024-02-13 05:28:00,SystemResetWarning,0824.9,5.00,000.00,019.3,018.6,000.0,027.6,020.9,11.4,0000.0,0001.78,0001.04,0000.65
2024-02-13 05:29:00,SystemResetWarning,0824.9,5.00,000.00,019.3,018.6,000.0,027.6,020.9,11.4,0000.0,0001.89,0001.07,0000.64
2024-02-13 05:30:00,SystemResetWarning,0824.9,5.01,000.00,019.3,018.6,000.0,027.6,020.9,11.3,0000.0,0001.87,0001.07,0000.65
2024-02-13 05:31:00,SystemResetWarning,0824.9,5.00,000.00,019.3,018.6,000.0,027.6,020.9,11.5,0000.0,0002.16,0001.06,0000.66
2024-02-13 05:32:00,SystemResetWarning,0824.9,4.99,000.00,019.3,018.6,000.0,027.6,020.9,11.6,0000.0,0002.23,0001.06,0000.65
2024-02-13 05:33:00,SystemResetWarning,0824.9,4.98,000.00,019.3,018.6,000.0,027.6,020.9,11.5,0000.0,0002.37,0001.13,0000.66
2024-02-13 05:34:00,SystemResetWarning,0824.9,5.00,000.00,019.2,018.6,000.0,027.6,020.9,11.5,0000.0,0002.45,0001.15,0000.67
2024-02-13 05:35:00,SystemResetWarning,0824.8,5.00,000.00,019.2,018.5,000.0,027.6,020.9,11.9,0000.0,0002.55,0001.18,0000.67
2024-02-13 05:36:00,SystemResetWarning,0824.8,5.00,000.00,019.2,018.5,000.0,027.6,020.9,11.6,0000.0,0002.60,0001.20,0000.68
2024-02-13 05:37:00,SystemResetWarning,0824.8,5.00,000.00,019.2,018.5,000.0,027.5,020.9,11.6,0000.0,0002.54,0001.17,0000.68
2024-02-13 05:38:00,SystemResetWarning,0824.9,5.00,000.00,019.2,018.5,000.0,027.5,020.8,11.6,0000.0,0002.51,0001.13,0000.67
2024-02-13 05:39:00,SystemResetWarning,0824.9,5.00,000.00,019.2,018.5,000.0,027.5,020.8,11.6,0000.0,0002.38,0001.08,0000.66
2024-02-13 05:40:00,SystemResetWarning,0824.9,5.00,000.00,019.2,018.5,000.0,027.5,020.8,11.5,0000.0,0002.24,0001.03,0000.65
2024-02-13 05:41:00,SystemResetWarning,0824.8,5.00,000.00,019.2,018.5,000.0,027.5,020.8,11.3,0000.0,0002.29,0001.03,0000.65
2024-02-13 05:42:00,SystemResetWarning,0824.9,5.00,000.00,019.2,018.5,000.0,027.5,020.8,11.0,0000.0,0002.37,0000.99,0000.64
2024-02-13 05:43:00,SystemResetWarning,0824.9,5.00,000.00,019.2,018.4,000.0,027.5,020.8,11.7,0000.0,0002.21,0000.98,0000.63
2024-02-13 05:44:00,SystemResetWarning,0824.9,5.01,000.00,019.2,018.4,000.0,027.5,020.8,11.8,0000.0,0002.71,0000.94,0000.63
2024-02-13 05:45:00,SystemResetWarning,0824.9,4.99,000.00,019.1,018.4,000.0,027.5,020.8,11.7,0000.0,0003.51,0000.92,0000.63
2024-02-13 05:46:00,SystemResetWarning,0825.0,4.99,000.00,019.1,018.4,000.0,027.5,020.8,12.0,0000.0,0003.55,0000.89,0000.63
2024-02-13 05:47:00,SystemResetWarning,0825.0,4.99,000.00,019.1,018.4,000.0,027.4,020.7,12.1,0000.0,0003.48,0000.86,0000.63
2024-02-13 05:48:00,SystemResetWarning,0825.1,5.00,000.00,019.1,018.4,000.0,027.4,020.7,12.1,0000.0,0003.55,0000.89,0000.64
2024-02-13 05:49:00,SystemResetWarning,0825.1,5.02,000.00,019.1,018.4,000.0,027.4,020.7,12.1,0000.0,0003.49,0000.91,0000.65
2024-02-13 05:50:00,SystemResetWarning,0825.1,5.01,000.00,019.1,018.4,000.0,027.4,020.7,12.3,0000.0,0003.63,0000.93,0000.66
2024-02-13 05:51:00,SystemResetWarning,0825.0,4.99,000.00,019.1,018.4,000.0,027.4,020.7,12.3,0000.0,0003.83,0000.95,0000.65
2024-02-13 05:52:00,SystemResetWarning,0824.9,4.99,000.00,019.1,018.4,000.0,027.4,020.7,12.2,0000.0,0003.94,0000.98,0000.66
2024-02-13 05:53:00,SystemResetWarning,0825.0,5.01,000.00,019.1,018.4,000.0,027.4,020.7,11.6,0000.0,0003.73,0001.02,0000.66
2024-02-13 05:54:00,SystemResetWarning,0825.0,5.01,000.00,019.0,018.4,000.0,027.4,020.7,12.0,0000.0,0003.71,0001.03,0000.67
2024-02-13 05:55:00,SystemResetWarning,0825.1,4.99,000.00,019.0,018.4,000.0,027.4,020.7,12.0,0000.0,0003.34,0001.03,0000.67
2024-02-13 05:56:00,SystemResetWarning,0825.2,4.99,000.00,019.0,018.4,000.0,027.4,020.7,12.0,0000.0,0002.36,0001.04,0000.67
2024-02-13 05:57:00,SystemResetWarning,0825.2,5.01,000.00,019.0,018.4,000.0,027.4,020.7,12.0,0000.0,0002.20,0001.04,0000.66
2024-02-13 05:58:00,SystemResetWarning,0825.2,5.00,000.00,019.0,018.4,000.0,027.3,020.7,12.0,0000.0,0002.31,0001.08,0000.66
2024-02-13 05:59:00,SystemResetWarning,0825.2,5.00,000.00,019.0,018.4,000.0,027.3,020.6,12.1,0000.0,0002.38,0001.11,0000.66
